Find Starlink 31010

NORAD ID: 58519 Int'l Des: 2023-191 Owner: SPXS Country: US Constellation: starlink operational
LEOCIRCULAR

Current View

Loading 3D Globe...

About Starlink 31010

Starlink 31010 (NORAD 58519) is a starlink constellation satellite (v2 mini) launched Dec 7, 2023 by SPXS of US. It operates in LEO, CIRCULAR orbit with a mass of 730.00 kg.

About Starlink 31010

Description loading...

Upcoming Passes

Passes for default location (London). Set your location on the main map for personalized predictions.

Altitude History

Loading altitude history...

Two-Line Element Set

1 58519U 23191M 26166.99305190 .00000144 00000-0 14750-4 0 9991
2 58519 42.9997 268.3774 0001092 262.9577 97.1150 15.27576635140507
Epoch: Jun 15, 2026 • Age: 11 hours

Current Status

Altitude 482.3 km
Velocity 7.63 km/s
Sub-Earth Point 8.39°N, 152.97°W
Launch Date Dec 7, 2023
Age 2.5 years
Type internet

Technical Details

Classification Payload
Mass 730.00 kg
Dry Mass 700.00 kg
Total Mass 730.00 kg
Length 0.30 m
Diameter 4.10 m
Span 29.00 m
Shape Box + pan
Manufacturer SPXS
Bus Type Starlink V2M
Phase Status In Orbit
Owner/State SPXS/US

Most Searched